Total_Precipitation_Accumulation
0.68 0.48 0.52 0.48 0.42 0.38 0.37 0.44 0.52 0.49 0.48 0.50 0.53 0.57 0.51 0.52 0.51 0.52 0.59 0.67 0.80 0.94 1.04 1.15 1.29 1.44 1.51 1.63 1.48 1.27 1.25 1.33 1.40 1.67 2.03 2.28 2.37 2.37 2.51 2.50 2.40 2.03 2.02
0.49 0.42 0.48 0.46 0.45 0.43 0.44 0.50 0.47 0.41 0.43 0.44 0.45 0.55 0.54 0.54 0.54 0.56 0.59 0.72 0.90 1.09 1.13 1.18 1.25 1.49 1.50 1.44 1.42 1.28 1.15 1.22 1.32 1.65 2.11 2.52 2.68 2.71 2.75 2.70 2.42 2.25 2.05
0.39 0.41 0.46 0.51 0.50 0.49 0.46 0.49 0.45 0.41 0.46 0.50 0.48 0.53 0.60 0.55 0.56 0.56 0.63 0.77 1.03 1.17 1.18 1.25 1.37 1.50 1.53 1.38 1.33 1.29 1.30 1.37 1.49 1.76 2.20 2.39 2.61 2.89 2.98 2.72 2.31 2.13 1.86
0.37 0.44 0.45 0.57 0.60 0.55 0.51 0.51 0.51 0.48 0.48 0.55 0.59 0.60 0.66 0.61 0.60 0.65 0.72 0.82 1.05 1.22 1.39 1.39 1.44 1.51 1.51 1.36 1.28 1.32 1.48 1.61 1.76 1.94 2.23 2.20 2.21 2.76 2.74 2.44 2.19 2.06 1.92
0.45 0.49 0.52 0.58 0.65 0.70 0.69 0.67 0.67 0.62 0.60 0.62 0.68 0.73 0.81 0.77 0.71 0.73 0.80 0.88 1.04 1.17 1.44 1.68 1.67 1.67 1.59 1.45 1.38 1.45 1.59 1.72 1.97 2.13 2.36 2.58 2.67 2.95 2.69 2.39 2.14 2.07 2.07
0.58 0.62 0.56 0.74 0.85 0.90 0.88 0.82 0.82 0.77 0.73 0.76 0.79 0.79 0.85 0.86 0.85 0.90 0.95 1.02 1.17 1.27 1.40 1.66 1.89 1.95 1.78 1.83 1.65 1.66 1.79 1.91 1.96 2.08 2.52 2.99 2.97 3.04 2.78 2.50 2.22 2.23 2.14
0.87 0.86 0.71 0.77 0.80 0.88 0.89 0.92 0.89 0.86 0.83 0.88 0.88 0.85 0.87 0.85 0.87 1.02 1.19 1.23 1.32 1.40 1.44 1.54 1.72 1.90 1.87 2.10 2.09 1.93 2.06 2.12 1.97 2.17 2.58 2.87 2.91 2.99 2.89 2.80 2.50 2.26 2.08
1.04 1.00 0.78 0.79 0.79 0.92 0.98 1.01 0.97 0.96 0.96 1.01 1.01 0.95 0.94 0.92 0.97 1.12 1.30 1.42 1.45 1.41 1.40 1.53 1.63 1.85 2.12 2.28 2.34 2.23 2.21 2.26 1.93 2.09 2.48 2.68 2.57 2.72 3.00 2.99 2.71 2.39 2.13
1.09 1.14 0.98 0.99 0.97 1.02 1.10 1.12 1.21 1.14 1.14 1.16 1.13 1.16 1.10 1.07 1.18 1.31 1.37 1.46 1.50 1.45 1.35 1.37 1.55 1.61 1.96 2.14 2.21 2.23 2.22 2.40 2.19 2.15 2.25 2.77 2.58 2.83 3.13 2.98 2.72 2.46 2.22
1.78 1.83 1.61 1.49 1.44 1.35 1.29 1.21 1.31 1.29 1.31 1.40 1.32 1.29 1.30 1.29 1.32 1.43 1.42 1.50 1.48 1.39 1.36 1.35 1.50 1.56 1.67 1.71 1.66 1.79 1.92 2.02 2.05 2.07 2.41 2.58 2.70 3.28 3.48 3.20 2.92 2.70 2.48
2.56 2.63 2.24 1.81 1.67 1.89 1.74 1.40 1.56 1.48 1.43 1.48 1.45 1.43 1.49 1.74 1.90 1.92 1.68 1.83 1.78 1.64 1.52 1.49 1.48 1.48 1.48 1.54 1.60 1.68 1.67 1.41 1.84 2.30 2.45 2.72 2.82 3.34 3.71 3.36 3.10 2.94 2.66
2.85 2.86 2.55 2.06 2.17 2.41 2.11 2.03 1.98 1.76 1.70 1.62 1.73 1.73 1.85 2.38 2.55 2.20 2.26 2.21 2.20 2.06 1.91 1.84 1.77 1.62 1.49 1.44 1.63 1.69 1.36 1.25 1.68 2.26 2.59 2.93 3.19 3.49 3.57 3.30 3.20 3.17 2.95
2.94 2.67 2.35 2.28 2.35 2.61 2.61 2.52 2.43 2.41 2.41 2.39 2.43 2.43 2.60 2.71 2.56 2.41 2.69 2.55 2.51 2.42 2.33 2.34 2.13 1.81 1.72 1.75 1.74 1.65 1.46 1.49 1.77 2.03 2.49 2.96 3.23 3.59 3.79 3.44 3.27 3.33 3.16
2.85 2.75 2.72 2.79 2.66 2.89 3.30 3.32 3.12 3.05 2.98 2.87 2.79 2.66 3.01 3.16 3.02 3.00 3.07 3.01 3.17 3.16 3.13 2.78 2.52 2.23 2.08 1.86 1.71 1.68 1.73 1.76 1.91 2.25 2.68 2.87 3.09 3.38 3.75 3.75 3.60 3.52 3.32
3.14 2.99 2.97 3.14 3.15 3.26 3.72 3.97 3.70 3.57 3.39 3.24 3.07 3.08 3.19 3.22 3.23 3.36 3.31 3.48 3.46 3.39 3.23 3.00 2.58 2.52 2.32 2.13 1.96 1.82 1.93 2.07 2.14 2.45 2.67 2.81 2.91 3.13 3.63 4.07 4.03 3.92 3.67
3.43 3.19 3.11 3.25 3.26 3.35 3.59 3.82 3.88 3.81 3.86 3.76 3.44 3.34 3.36 3.41 3.51 3.54 3.53 3.50 3.34 3.18 3.23 3.16 2.92 2.84 2.64 2.47 2.25 2.19 2.18 2.18 2.30 2.41 2.61 2.86 2.70 2.76 3.29 3.85 4.20 4.20 4.12
3.70 3.62 3.46 3.49 3.66 3.62 3.65 3.72 3.68 3.72 3.99 3.99 3.92 3.85 3.59 3.49 3.60 3.66 3.70 3.58 3.41 3.33 3.39 3.29 3.19 3.11 2.94 2.79 2.66 2.58 2.56 2.42 2.36 2.45 2.69 2.91 2.87 2.88 3.09 3.42 3.79 4.07 4.25
4.15 4.04 3.63 3.36 3.69 3.79 3.86 3.88 3.92 3.95 4.15 4.12 3.97 4.07 3.84 3.83 3.74 3.73 3.59 3.40 3.34 3.31 3.52 3.57 3.44 3.43 3.28 3.15 3.07 2.82 2.78 2.74 2.54 2.62 2.72 2.81 3.13 3.22 3.25 3.23 3.39 3.72 4.06
4.66 4.43 3.85 3.54 3.68 3.88 3.91 4.06 4.29 4.47 4.45 4.30 4.12 4.18 4.05 4.07 3.96 3.86 3.91 3.85 3.69 3.74 3.74 3.46 3.55 3.63 3.66 3.59 3.22 3.05 2.90 2.83 2.72 2.60 2.61 2.64 2.94 3.20 3.22 3.22 3.34 3.44 3.78
4.78 4.68 4.21 3.96 4.19 4.20 4.10 4.19 4.35 4.50 4.51 4.59 4.60 4.54 4.40 4.35 4.39 4.51 4.51 4.44 4.25 4.13 4.08 4.15 4.14 3.87 3.69 3.69 3.35 3.23 3.06 2.80 2.69 2.63 2.49 2.50 2.65 2.62 2.73 2.86 3.17 3.19 3.38
4.00 4.10 4.28 4.28 4.34 4.37 4.36 4.38 4.58 4.79 4.81 4.77 4.89 4.94 4.82 4.75 4.88 5.18 5.21 5.08 4.77 4.50 4.32 4.32 4.33 4.12 3.82 3.67 3.72 3.53 3.15 2.78 2.68 2.59 2.54 2.51 2.35 2.34 2.53 2.74 2.83 2.80 2.90
3.77 3.99 4.25 4.27 4.41 4.66 5.05 5.57 5.87 6.00 5.87 5.68 5.57 5.52 5.39 5.29 5.39 5.46 5.53 5.21 4.88 4.73 4.48 4.25 4.23 4.07 3.79 3.74 3.82 3.89 3.47 3.16 2.64 2.25 2.35 2.34 2.28 2.30 2.32 2.33 2.43 2.51 2.55
3.38 3.73 4.04 4.39 4.79 5.28 5.94 6.75 7.09 6.86 6.42 6.18 5.87 5.80 5.57 5.34 5.30 5.42 5.15 4.92 4.75 4.58 4.39 4.22 4.24 4.18 3.82 3.69 3.81 4.06 3.75 3.36 2.95 2.56 2.30 2.21 2.29 2.33 2.31 2.34 2.29 2.36 2.40
3.01 3.49 3.98 4.54 5.14 5.80 6.43 6.90 7.15 7.04 6.76 6.43 5.96 5.56 5.18 4.86 4.65 4.55 4.43 4.23 4.17 4.06 3.94 3.76 3.82 3.91 3.82 3.55 3.49 3.32 3.27 3.14 3.09 2.80 2.50 2.30 2.27 2.31 2.30 2.23 2.23 2.30 2.34
2.92 3.40 3.90 4.43 5.16 5.66 6.21 6.63 6.90 6.92 6.81 6.42 5.71 5.03 4.59 4.24 3.98 3.69 3.48 3.40 3.41 3.41 3.25 3.09 3.14 3.20 3.18 3.15 3.12 2.96 2.92 2.92 2.84 2.72 2.62 2.53 2.44 2.26 2.19 2.17 2.18 2.17 2.24
2.84 3.36 3.73 4.09 4.84 5.55 6.06 6.42 6.73 6.73 6.53 5.89 5.15 4.55 4.16 3.85 3.58 3.30 3.12 2.99 2.95 2.89 2.75 2.64 2.65 2.67 2.70 2.73 2.84 2.85 2.75 2.68 2.62 2.65 2.49 2.40 2.37 2.22 2.14 2.09 2.06 2.09 2.18